Regional Weather Roundup
Issued by NWS

Home | Current Version | Previous Version | Text Only | Print | Product List | Glossary On
Versions: 1 2 3 4 5 6 7 8 9 10 11 12 13 14 15 16 17 18 19 20 21 22 23 24 25 26 27 28 29 30 31 32 33 34 35 36 37 38 39 40 41 42 43 44 45 46 47 48 49 50
000
ASHW40 PHFO 101243
RWRHI

WEATHER ROUNDUP FOR HAWAII
NATIONAL WEATHER SERVICE HONOLULU HI
200 AM HST SAT DEC 10 2016

THIS IS AN AUTOMATED REPORT THAT HAS NOT BEEN QUALITY CONTROLLED.

NOTE..."FAIR" INDICATES FEW OR NO CLOUDS BELOW 12,000 FEET WITH NO
SIGNIFICANT WEATHER AND/OR OBSTRUCTIONS TO VISIBILITY.

* - THESE SITES REPORT LIMITED FIELDS

HIZ001>004-101300-
KAUAI-NIIHAU-

CITY           SKY/WX    TMP DP  RH WIND       PRES   REMARKS
LIHUE APT      MOCLDY    69  67  93 NW6       29.95F
PORT ALLEN*      N/A     70 N/A N/A N6          N/A
POIPU*           N/A     68 N/A N/A N2          N/A
PRINCEVILLE*   NOT AVBL
KOKOLE POINT*  NOT AVBL
MOLOAA DAIRY*    N/A     68  66  94 CALM        N/A
WAIMEA HTS*      N/A     72  66  83 NE2G9       N/A
PUU OPAE*      NOT AVBL
PUU LUA*       NOT AVBL
MAKAHA RIDGE*    N/A     66  64  94 SE1         N/A
$$

HIZ005>011-101300-
OAHU-

CITY           SKY/WX    TMP DP  RH WIND       PRES   REMARKS
HONOLULU       CLOUDY    70  68  93 NW3       29.95F
KALAELOA       CLOUDY    70  67  90 E3        29.96F
KANEOHE MCB    NOT AVBL
WHEELER FIELD  FAIR      66  65  99 CALM      29.96F
BELLOWS*         N/A    N/A N/A N/A SW3         N/A
KAHUKU*          N/A    N/A N/A N/A W1          N/A
WHEELER*         N/A    N/A N/A N/A NE2         N/A
WAIANAE HARBOR   N/A    N/A N/A N/A NE5         N/A
DILLINGHAM*      N/A     66  63  88 MISG        N/A
KAHUKU TRN*      N/A     79  73  83 CALM        N/A
KAWAILOA*        N/A     68  64  88 E3          N/A
KII*             N/A     70  70 100 SW3         N/A
MAKUA RANGE*     N/A     70  64  83 N5          N/A
OAHU FOREST NW   N/A     68  66  94 S3          N/A
SCHOFIELD BRK*   N/A     64  64 100 MISG        N/A
SCHOFIELD S*   NOT AVBL
WAIANAE VLY*   NOT AVBL
KUAOKALA*        N/A     72  64  78 S6          N/A
HONOULIUULI*   NOT AVBL
MOKUOLOE IS*   NOT AVBL
PALEHUA*         N/A     64  63  94 CALM        N/A
WAIAWA PHB*    NOT AVBL
$$

HIZ012>013-101300-
MOLOKAI-

CITY           SKY/WX    TMP DP  RH WIND       PRES   REMARKS
MOLOKAI AIRPT  CLOUDY    72  68  87 E6        29.96F
KALAUPAPA      NOT AVBL
MAKAPULAPAI*     N/A     72  70  94 SE3         N/A
MOLOKAI 1*     NOT AVBL
PUU ALII*        N/A     58  57  98 NE1G7       N/A
$$

HIZ016-101300-
KAHOOLAWE-

CITY           SKY/WX    TMP DP  RH WIND       PRES   REMARKS
KAHOOLAWE*     NOT AVBL
HAKIOAWA*        N/A     68  66  93 MISG      30.38F
HONOKANAIA*      N/A     73  67  82 E3        29.91F
KANELOA*         N/A     72  68  88 NW2       30.03F
KEALIALALO*    NOT AVBL
LUA MAKIKA*    NOT AVBL
$$

HIZ014>015-101300-
LANAI-

CITY           SKY/WX    TMP DP  RH WIND       PRES   REMARKS
LANAI CITY     CLOUDY    68  66  94 E6        30.01F
LANAI 1*       NOT AVBL
$$

HIZ017>028-101300-
MAUI-

CITY           SKY/WX    TMP DP  RH WIND       PRES   REMARKS
KAHULUI        CLOUDY    71  66  84 W5        29.96F
KAPALUA-W MAUI NOT AVBL
HANA AIRPORT   MOCLDY    68  68 100 S3        29.98S
HANA*            N/A     70 N/A N/A S3          N/A
HALEAKALA SUMM   N/A     43  43 100 SW12G26     N/A
MAALAEA BAY*     N/A     72 N/A N/A NW3         N/A
HALEAKALA*     NOT AVBL
KAUPO GAP*       N/A     72  63  73 W5G14       N/A
KULA 1*          N/A     53  48  84 NW5G22      N/A
$$

HIZ023>026-101300-
BIG ISLAND OF HAWAII COAST AND LOWER SLOPES-

CITY           SKY/WX    TMP DP  RH WIND       PRES   REMARKS
KAILUA KONA    CLOUDY    76  65  68 CALM      29.95R
HILO           CLOUDY    71  69  93 S3        29.96F
HONOKAA*         N/A     66 N/A N/A VRB1        N/A
KAWAIHAE MWT*    N/A     73 N/A N/A SE3         N/A
KAWAIHAE*        N/A     73 N/A N/A E3        29.95S
SOUTH POINT*     N/A     70 N/A N/A N9          N/A
UPOLU AIRPORT* NOT AVBL
KAMUELA*       PTSUNNY   64  61  88 W5        30.06S
HAKALAU*         N/A     51  49  91 SW5G12      N/A
KALOKO-HONOKO*   N/A     73  66  78 NE3       29.94R
PALI 2*          N/A     63  63 100 SE3         N/A
KEALAKOMO*       N/A     73  70  88 W3          N/A
KAUPULEHU*       N/A     70  63  78 SE3G9       N/A
KAPAPALA*      NOT AVBL
LOWER KAHUKU*    N/A     63  63 100 NE1         N/A
PUHE CS*         N/A     73  66  78 E2          N/A
PUHO CS*         N/A     73  64  73 E3          N/A
PTA KEAMUKU*     N/A     63  55  77 CALM        N/A
WAIKOLOA*        N/A     68  63  83 SE3         N/A
$$

HIZ027>028-101300-
BIG ISLAND OF HAWAII INTERIOR AND SUMMMITS-

CITY           SKY/WX    TMP DP  RH WIND       PRES   REMARKS
BRADSHAW FIELD CLOUDY    54  52  94 S3        30.26F
MK VISITOR CEN   N/A     48  39  71 NW9         N/A
MAUNA KEA*       N/A     32  30  93 SW31        N/A  WCI  17
MAUNA LOA*       N/A     41  34  75 MISG        N/A
MAUNA LOA 1*   NOT AVBL
PTA KIPUKA*      N/A     55  54  94 SE2G8       N/A
PTA RANGE 17*    N/A     55  50  82 E5          N/A
PTA WEST*        N/A     57  54  88 SE6         N/A
NENE CABIN*      N/A     52  50  93 N2          N/A
AHUMOA*          N/A     51  50  95 NE3         N/A
PTA PORTABLE*  NOT AVBL
PUU MALI*        N/A     54  48  82 S5          N/A
$$

HIC003-101300-
NORTHWEST ISLANDS-

CITY           SKY/WX    TMP DP  RH WIND       PRES   REMARKS
MIDWAY ISLAND  PTCLDY    70  64  83 N3        30.04F
MIDWAY NOS*      N/A     72 N/A N/A MISG      30.01F
FRENCH FRIGATE NOT AVBL
$$

PHZ110>124-180-101300-
BUOY REPORTS

STATION/POSITION TIME  TEMP    WIND        PRES    WAVE   SWELL
                       AIR SEA DIR/SP/G            HT/PER HT/DIR
                 (UTC) (F)     (DEG/KT/KT) (MB)    (FT/S) (FT/D)
BUOY 51001       1220   75 78  270/  4/  8 1012.9
BUOY 51101       1150   75 78  210/  4/  6 1013.7F   8/12   8/ 10
BUOY 51100       NOT AVBL
BUOY 51002       1220   77 78  110/ 10/ 14 1012.5
BUOY 51003       1150   77 79   40/  6/  8 1012.9F   6/11   5/330
BUOY 51004       1150   76 79  130/ 14/ 16 1014.6F   7/ 8   5/110
BARBERS PT BUOY  NOT AVBL
WAIMEA BAY BUOY  NOT AVBL
KAILUA BAY BUOY  1204      78                N/A     4/11   2/350
LANAI BUOY       1215      78                N/A     2/ 8   2/270
BARBERS PT 2     1209      78                N/A     3/ 5   2/270
PAUWELA MAUI     1209      77                N/A     4/12   2/330
HILO             1212      78                N/A     4/ 8   2/ 20
KANEOHE BAY BUOY 1206      77                N/A     3/12   2/ 20
HANALEI KAUAI    1222      76                N/A     5/12   3/350
KAHULUI HARBOR   1212   72 78   CALM  /  1 1014.2
HONOLULU HARBOR  1212   73 78     CALM     1014.5
KILO NALU        NOT AVBL
HILO HARBOR      1212   71 76  200/  5/  6 1013.9
MOKUOLOE         1136   74      CALM  /  1   N/A
NAWILIWILI       1212   70 78  230/  3/  4 1013.9
WHOTS BUOY       NOT AVBL
BUOY 51028       NOT AVBL
$$

......................KEY........................................
  SKY/WX - SKY CONDITIONS/PRESENT WEATHER
  TMP    - TEMPERATURE IN FAHRENHEIT
  DWPT   - DEWPOINT IN FAHRENHEIT
  RH     - RELATIVE HUMIDITY IN PERCENT
  WIND   - DIRECTION AND SPEED /MPH FOR ISLANDS...KTS FOR BUOYS/
  PRES   - MEAN SEA LEVEL PRESSURE IN INCHES OF HG
  VSB    - VISIBILITY IN MILES
  HX     - HEAT INDEX
  WCI    - WIND CHILL INDEX
  VRB    - VARIABLE WIND DIRECTION
  N/A    - NOT AVAILABLE




USA.gov is the U.S. government's official web portal to all federal, state and local government web resources and services.